Estación de Codegua

Ultimos registro cada 15 minutos 38
Estación Fecha / Hora Temperatura Humedad Lluvia Velocidad Dirección Radiación Presion
38 Codegua 06-05-2026 09:15 16,6 67,6 0 0,5 17 283,1 956,9
37 Codegua 06-05-2026 09:00 16,2 68,7 0 1 22 253,1 956,8
36 Codegua 06-05-2026 08:45 15,8 69,2 0 0,5 14 60,6 957
35 Codegua 06-05-2026 08:30 15,2 70,8 0 0 20 29,4 957,2
34 Codegua 06-05-2026 08:15 15,1 71,1 0 1 28 23,1 956,9
33 Codegua 06-05-2026 08:00 14,5 73 0 0,5 22 11,9 956,9
32 Codegua 06-05-2026 07:45 14 75,5 0 0 17 5,6 956,9
31 Codegua 06-05-2026 07:30 14 75,2 0 0,5 32 1,9 956,8
30 Codegua 06-05-2026 07:15 14,1 75,4 0 0,5 31 0,6 956,3
29 Codegua 06-05-2026 07:00 13,8 78,3 0 0,5 29 0,6 956,2
28 Codegua 06-05-2026 06:45 12,7 84,8 0 0 22 0,6 956,1
27 Codegua 06-05-2026 06:30 10,4 95,3 0 0 44 0,6 956,1
26 Codegua 06-05-2026 06:15 8,6 97,2 0 0 117 0,6 955,8
25 Codegua 06-05-2026 06:00 8,1 97,5 0 0 108 0,6 955,8
24 Codegua 06-05-2026 05:45 8,3 97,4 0 0 121 0,6 955,6
23 Codegua 06-05-2026 05:30 8 96,1 0 0 121 0,6 955,5
22 Codegua 06-05-2026 05:15 8,9 96,1 0 0 121 0,6 955,2
21 Codegua 06-05-2026 05:00 9,1 96,2 0 0 121 0,6 955
20 Codegua 06-05-2026 04:45 9,2 96,5 0 0 102 0,6 954,9
19 Codegua 06-05-2026 04:30 8,6 96,8 0 0 95 0,6 955
18 Codegua 06-05-2026 04:15 8,1 96,6 0 0 95 0,6 955,1
17 Codegua 06-05-2026 04:00 7,9 96 0 0 95 0,6 955,2
16 Codegua 06-05-2026 03:45 8,1 95,5 0 0 95 0,6 955,4
15 Codegua 06-05-2026 03:30 8,7 95,2 0 0 66 0,6 955,2
14 Codegua 06-05-2026 03:15 8,6 94,5 0 0 27 0,6 955,1
13 Codegua 06-05-2026 03:00 9,2 94,3 0 0 6 0,6 954,9
12 Codegua 06-05-2026 02:45 9 95,1 0 0 350 0,6 955
11 Codegua 06-05-2026 02:30 9,1 94,4 0 0 350 0,6 955,2
10 Codegua 06-05-2026 02:15 9,7 93,8 0 0 350 0,6 955,5
9 Codegua 06-05-2026 02:00 9,8 93,9 0 0 350 0,6 955,5
8 Codegua 06-05-2026 01:45 10 93,5 0 0 350 0,6 955,6
7 Codegua 06-05-2026 01:30 10 93,5 0 0 350 0,6 955,7
6 Codegua 06-05-2026 01:15 10,1 92,9 0 0 350 0,6 956,1
5 Codegua 06-05-2026 01:00 10,2 93 0 0 350 0,6 956,2
4 Codegua 06-05-2026 00:45 10 93,5 0 0 350 0,6 956,1
3 Codegua 06-05-2026 00:30 9,9 92,9 0 0 350 0,6 955,9
2 Codegua 06-05-2026 00:15 10,6 92,8 0 0 350 0,6 956,2
1 Codegua 06-05-2026 00:00 10,3 92,7 0 0 350 0,6 956,2